DLR-TUBSAT

Last updated on Mon Sep 21 2026 00:02:45 GMT+0000 (Coordinated Universal Time)

1 25757U 99029B 26263.43034870 .00000047 00000+0 23464-4 0 9996 2 25757 98.6774 262.1044 0015218 62.9196 297.3549 14.52445756447072
UTC large
Height (km)
Speed (km/s)
/
Latitude / Longitude
Inclination (degrees)
Orbital Period (minutes)
Azimuth
Elevation
Range (km)
Doppler Factor

Next 0 passes for location: London (51.5072 / 0.1276)

No passes found over London.
DLR-TUBSAT